(19081) Mravinskij = 1973 SX2 = 1998 UG20

Discovered at Nauchnyj on 1973-09-22 by N. S. Chernykh.
(19081) Mravinskij = 1973 SX2

Evgenij Aleksandrovich Mravinskij (1903-1988) was an outstanding Russian musician and conductor. He was the head of the State Symphonic Orchestra of the Leningrad Philharmonic Society for more than 50 years and was the first performer of D. D. Shostakovich symphonies and works of many other Soviet composers. [Ref: Minor Planet Circ. 48395]

Orbit

Orbit type: Main Belt

Note: WebGL enabled browser required.

epoch2024-03-31.0
epoch JD2460400.5
perihelion date2023-03-29.38538
perihelion JD2460032.88539
argument of perihelion (°)186.95727
ascending node (°)201.45224
inclination (°)14.71621
eccentricity0.1160577
perihelion distance (AU)2.2684456
Tisserand w.r.t. Jupiter3.4
ΔV w.r.t. Earth (km/sec)10.5
semimajor axis (AU)2.5662825
mean anomaly (°)88.13332
mean daily motion (°/day)0.23974380
aphelion distance (AU)2.864
period (years)4.11
P-vector [x]0.88102285
P-vector [y]0.44535737
P-vector [z]0.15954796
Q-vector [x]-0.46386124
Q-vector [y]0.87948743
Q-vector [z]0.10646415
absolute magnitude13.13
phase slope0.15
uncertainty0
referenceE2024-GI3
observations used3895
oppositions24
arc length (days)18464
first opposition used1973
last opposition used2024
residual rms (arc-secs)0.53
perturbers coarse indicatorM-v
perturbers precise indicator003Ek
first observation date used1973-09-22.0
last observation date used2024-04-12.0
computer nameMPCLINUX
JD of orbit computation2456966.733946
perihelion JD uncertainty (days)6.2775E-05
argument of perihelion uncertainty (°)1.9770E-05
ascending node uncertainty (°)1.1854E-05
inclination uncertainty (°)5.1092E-06
eccentricity uncertainty 5.1954E-08
perihelion distance uncertainty (AU)1.3774E-07
Minimum Orbit Intersection Distances (in AU)
for orbit epoch: 2460400.5, reference: E2024-GI3
Mercury1.93415
Venus1.54408
Earth1.27333
Mars0.83325
Jupiter2.57783
Saturn6.66455
Uranus15.6595
Neptune27.554

Observations

3920 total observations over interval: 1973 09 22.97878 – 2024 03 19.803824
These data are available for download (format description).

Date (UT) J2000 RA J2000 Dec Magn Location Ref
1973 09 22.97878 01 19 35.07 +12 39 03.8 16.0   095 – Crimea-Nauchnyi MPC 3976
1973 09 26.95895 01 17 15.68 +11 54 35.0 16.0   095 – Crimea-Nauchnyi MPC 3978
1973 10 02.93623 01 13 19.49 +10 42 12.6 16.0   095 – Crimea-Nauchnyi MPC 3981
1973 10 26.88010 00 56 47.90 +05 31 36.0 16.0   095 – Crimea-Nauchnyi MPC 3982
1990 11 18.43542 07 00 44.85 +03 10 19.7   261 – Palomar Mountain-DSS MPS 22027
1990 11 18.49444 07 00 44.16 +03 09 48.3   261 – Palomar Mountain-DSS MPS 22027
1990 12 18.33819 06 43 23.33 +00 00 06.4   261 – Palomar Mountain-DSS MPS 22027
1990 12 18.40417 06 43 19.64 -00 00 06.5   261 – Palomar Mountain-DSS MPS 22027
1991 01 20.23611 06 14 20.15 +00 27 37.5   261 – Palomar Mountain-DSS MPS 22027
1991 01 20.27083 06 14 18.61 +00 27 47.7   261 – Palomar Mountain-DSS MPS 22027
1992 05 30.40633 12 52 45.36 -02 28 59.4   260 – Siding Spring Observatory-DSS MPS 22027
1992 05 30.44800 12 52 45.27 -02 28 51.7   260 – Siding Spring Observatory-DSS MPS 22027
1996 04 23.27393 12 19 51.33 -04 43 12.9 17.4 V 566 – Haleakala-NEAT/GEODSS MPS 4085
1996 04 23.29382 12 19 50.64 -04 43 02.6 17.0 V 566 – Haleakala-NEAT/GEODSS MPS 4085
1996 04 23.36126 12 19 48.28 -04 42 27.1 18.1 V 566 – Haleakala-NEAT/GEODSS MPS 4085
1996 05 07.22292 12 14 09.62 -02 55 57.4   261 – Palomar Mountain-DSS MPS 22027
1996 05 07.25069 12 14 09.21 -02 55 47.2   261 – Palomar Mountain-DSS MPS 22027
1998 08 31.41367 04 22 53.13 +16 06 56.6 17.2   704 – Lincoln Laboratory ETS, New Mexico MPS 5811
1998 08 31.42315 04 22 53.81 +16 06 53.2   704 – Lincoln Laboratory ETS, New Mexico MPS 5811
1998 08 31.43295 04 22 54.50 +16 06 51.0 17.9   704 – Lincoln Laboratory ETS, New Mexico MPS 5811
1998 08 31.44294 04 22 55.15 +16 06 47.2 17.9   704 – Lincoln Laboratory ETS, New Mexico MPS 5811
1998 08 31.45189 04 22 55.79 +16 06 47.1 17.9   704 – Lincoln Laboratory ETS, New Mexico MPS 5811
1998 10 29.02318 04 52 30.92 +08 30 59.5   120 – Visnjan MPS 2894
1998 10 29.05517 04 52 30.19 +08 30 39.9 16.8   120 – Visnjan MPS 2894
1998 10 30.02800 04 52 08.18 +08 20 28.2   120 – Visnjan MPS 2894
1998 10 30.03942 04 52 07.88 +08 20 21.0   120 – Visnjan MPS 2894
1998 10 30.05096 04 52 07.59 +08 20 13.8 16.8   120 – Visnjan MPS 2894
1998 11 12.01618 04 44 43.99 +06 06 33.7 16.3   120 – Visnjan MPS 3097
1998 11 12.04215 04 44 42.79 +06 06 18.3   120 – Visnjan MPS 3097
1998 11 13.43252 04 43 40.62 +05 52 37.9 17.1   704 – Lincoln Laboratory ETS, New Mexico MPS 5811
1998 11 13.44225 04 43 40.12 +05 52 31.0   704 – Lincoln Laboratory ETS, New Mexico MPS 5811
1998 11 13.45208 04 43 39.66 +05 52 25.7   704 – Lincoln Laboratory ETS, New Mexico MPS 5811
1998 11 13.46191 04 43 39.15 +05 52 20.1   704 – Lincoln Laboratory ETS, New Mexico MPS 5811
1998 11 13.47165 04 43 38.70 +05 52 13.6   704 – Lincoln Laboratory ETS, New Mexico MPS 5811
1998 11 13.94097 04 43 17.60 +05 47 37.0   120 – Visnjan MPS 3097
1998 11 13.94980 04 43 17.21 +05 47 34.1   120 – Visnjan MPS 3097
1998 11 13.95532 04 43 16.90 +05 47 31.3   120 – Visnjan MPS 3097
1998 11 13.95944 04 43 16.81 +05 47 27.7 16.5   120 – Visnjan MPS 3097
1998 11 13.96376 04 43 16.47 +05 47 25.6   120 – Visnjan MPS 3097
1998 11 28.91627 04 30 17.80 +03 39 06.1 16.5   120 – Visnjan MPS 3097
1998 11 28.93435 04 30 16.78 +03 38 58.6   120 – Visnjan MPS 3097
1998 12 15.23914 04 16 11.08 +02 15 16.2 15.5   704 – Lincoln Laboratory ETS, New Mexico MPS 3293
1998 12 15.25404 04 16 10.49 +02 15 16.1   704 – Lincoln Laboratory ETS, New Mexico MPS 3293
1998 12 15.26894 04 16 09.77 +02 15 13.4 15.9   704 – Lincoln Laboratory ETS, New Mexico MPS 3293
1998 12 15.28386 04 16 08.98 +02 15 09.7 16.1   704 – Lincoln Laboratory ETS, New Mexico MPS 3293
1998 12 15.29879 04 16 08.24 +02 15 08.9 16.1   704 – Lincoln Laboratory ETS, New Mexico MPS 3293
1998 12 16.93213 04 14 55.69 +02 10 35.8 16.5   120 – Visnjan MPS 3293
1998 12 16.95716 04 14 54.55 +02 10 32.0   120 – Visnjan MPS 3293
1998 12 17.20399 04 14 44.10 +02 09 55.8 16.1 R 699 – Lowell Observatory-LONEOS MPS 58320
1998 12 17.21928 04 14 43.40 +02 09 53.6   699 – Lowell Observatory-LONEOS MPS 58320
1998 12 17.23457 04 14 42.70 +02 09 51.5   699 – Lowell Observatory-LONEOS MPS 58320
1998 12 17.90144 04 14 14.16 +02 08 14.4 16.5   120 – Visnjan MPS 3293
1998 12 17.91653 04 14 13.46 +02 08 12.5   120 – Visnjan MPS 3293
1998 12 22.09409 04 11 28.75 +02 00 58.8 17.8   704 – Lincoln Laboratory ETS, New Mexico MPS 3293
1998 12 22.11675 04 11 28.07 +02 00 56.6   704 – Lincoln Laboratory ETS, New Mexico MPS 3293
1998 12 22.13941 04 11 27.11 +02 00 54.8   704 – Lincoln Laboratory ETS, New Mexico MPS 3293
1998 12 22.16211 04 11 26.24 +02 00 53.7   704 – Lincoln Laboratory ETS, New Mexico MPS 3293
1998 12 23.76204 04 10 30.00 +01 59 18.6   120 – Visnjan MPS 3293
1998 12 23.81191 04 10 28.25 +01 59 16.4 17.0   120 – Visnjan MPS 3293
1998 12 23.84683 04 10 26.99 +01 59 14.9   120 – Visnjan MPS 3293
1999 01 13.21100 04 04 42.47 +02 30 06.8 16.6 R 699 – Lowell Observatory-LONEOS MPS 3561
1999 01 13.23140 04 04 42.46 +02 30 11.6   699 – Lowell Observatory-LONEOS MPS 3561
1999 01 13.25179 04 04 42.44 +02 30 15.3   699 – Lowell Observatory-LONEOS MPS 3561
1999 02 04.14578 04 11 37.51 +04 15 05.9 17.9   704 – Lincoln Laboratory ETS, New Mexico MPS 3767
1999 02 04.15616 04 11 37.88 +04 15 11.6 17.9   704 – Lincoln Laboratory ETS, New Mexico MPS 3767
1999 02 04.16649 04 11 38.23 +04 15 13.8 17.9   704 – Lincoln Laboratory ETS, New Mexico MPS 3767
1999 02 04.17692 04 11 38.72 +04 15 17.4 18.2   704 – Lincoln Laboratory ETS, New Mexico MPS 3767
1999 02 04.18727 04 11 39.05 +04 15 21.5 18.2   704 – Lincoln Laboratory ETS, New Mexico MPS 3767
2000 01 10.45638 12 14 10.81 -12 03 27.2 18.8   704 – Lincoln Laboratory ETS, New Mexico MPS 8291
2000 01 10.47110 12 14 11.17 -12 03 31.4 18.9   704 – Lincoln Laboratory ETS, New Mexico MPS 8292
2000 01 10.48589 12 14 11.64 -12 03 34.0 19.3   704 – Lincoln Laboratory ETS, New Mexico MPS 8292
2000 01 10.50112 12 14 12.02 -12 03 37.3 19.1   704 – Lincoln Laboratory ETS, New Mexico MPS 8292
2000 01 10.51589 12 14 12.40 -12 03 41.6 18.8   704 – Lincoln Laboratory ETS, New Mexico MPS 8292
2000 01 11.46254 12 14 37.70 -12 06 42.8 18.8   704 – Lincoln Laboratory ETS, New Mexico MPS 8292
2000 01 11.47750 12 14 38.12 -12 06 45.9 18.8   704 – Lincoln Laboratory ETS, New Mexico MPS 8292
2000 01 11.49240 12 14 38.46 -12 06 50.0 19.0   704 – Lincoln Laboratory ETS, New Mexico MPS 8292
2000 01 11.50706 12 14 38.81 -12 06 52.5 19.0   704 – Lincoln Laboratory ETS, New Mexico MPS 8292
2000 01 11.52160 12 14 39.20 -12 06 55.5 18.7   704 – Lincoln Laboratory ETS, New Mexico MPS 8292
2000 03 09.37236 12 02 44.11 -09 48 51.1 16.8   704 – Lincoln Laboratory ETS, New Mexico MPS 10671
2000 03 09.38520 12 02 43.48 -09 48 44.4 16.0   704 – Lincoln Laboratory ETS, New Mexico MPS 10671
2000 03 09.39804 12 02 42.90 -09 48 38.0 15.7   704 – Lincoln Laboratory ETS, New Mexico MPS 10671
2000 03 09.41094 12 02 42.32 -09 48 31.9 15.9   704 – Lincoln Laboratory ETS, New Mexico MPS 10671
2000 03 09.42378 12 02 41.73 -09 48 25.2 15.6   704 – Lincoln Laboratory ETS, New Mexico MPS 10671
2000 03 12.26649 12 00 31.69 -09 24 01.9 16.9 R 699 – Lowell Observatory-LONEOS MPS 11706
2000 03 12.28705 12 00 30.70 -09 23 51.3   699 – Lowell Observatory-LONEOS MPS 11706
2000 03 12.30754 12 00 29.73 -09 23 40.4   699 – Lowell Observatory-LONEOS MPS 11706
2000 03 12.32807 12 00 28.71 -09 23 29.5   699 – Lowell Observatory-LONEOS MPS 11706
2000 03 13.37363 11 59 39.88 -09 14 12.2 17.3   704 – Lincoln Laboratory ETS, New Mexico MPS 10671
2000 03 13.38637 11 59 39.26 -09 14 05.5 17.4   704 – Lincoln Laboratory ETS, New Mexico MPS 10671
2000 03 13.39909 11 59 38.66 -09 13 58.8 17.9   704 – Lincoln Laboratory ETS, New Mexico MPS 10671
